HWS08 ESSL-ZZZZ

Flight info

Callsign HWS08
Flight time N/A
Altitude 1111
Route VFR
Aircraft EC45/L-SDGM3RYZ/S

Departure

Time 2026-05-07 16:33
Airport Linköping City Airport (ESSL)

Arrival

Time N/A
Airport ZZZZ
Time Latitude Longitude Altitude Speed Heading
2026-05-07 16:23 58.40920 15.65579 151 ft 0 kts 147°
2026-05-07 16:28 58.40917 15.65586 157 ft 3 kts 129°
2026-05-07 16:28 58.40912 15.65674 156 ft 9 kts 100°
2026-05-07 16:29 58.40881 15.65800 157 ft 13 kts 85°
2026-05-07 16:29 58.40936 15.65956 156 ft 15 kts 53°
2026-05-07 16:29 58.40977 15.66147 156 ft 16 kts 63°
2026-05-07 16:29 58.40992 15.66314 215 ft 8 kts 304°
2026-05-07 16:30 58.41137 15.65645 436 ft 68 kts 291°
2026-05-07 16:30 58.41578 15.65108 584 ft 83 kts 330°
2026-05-07 16:30 58.42123 15.64533 667 ft 95 kts 320°
2026-05-07 16:30 58.42654 15.63663 712 ft 108 kts 316°
2026-05-07 16:31 58.43241 15.62645 693 ft 120 kts 311°
2026-05-07 16:31 58.43572 15.61172 644 ft 124 kts 282°
2026-05-07 16:31 58.43733 15.59564 609 ft 120 kts 280°
2026-05-07 16:31 58.43852 15.58003 619 ft 120 kts 276°
2026-05-07 16:32 58.43910 15.56425 623 ft 118 kts 270°
2026-05-07 16:32 58.43849 15.54903 615 ft 114 kts 261°
2026-05-07 16:32 58.43612 15.53487 671 ft 110 kts 249°
2026-05-07 16:32 58.43295 15.52183 709 ft 107 kts 244°
2026-05-07 16:33 58.42931 15.50966 762 ft 107 kts 239°
2026-05-07 16:33 58.42504 15.49779 802 ft 108 kts 234°
2026-05-07 16:33 58.42035 15.48667 851 ft 108 kts 231°
2026-05-07 16:33 58.41539 15.47580 927 ft 109 kts 230°
2026-05-07 16:34 58.41088 15.46391 984 ft 112 kts 238°
2026-05-07 16:34 58.40666 15.45155 1030 ft 113 kts 238°
2026-05-07 16:34 58.40388 15.44296 1045 ft 114 kts 237°
2026-05-07 16:34 58.39911 15.43066 1033 ft 117 kts 234°
2026-05-07 16:35 58.39492 15.41728 1045 ft 119 kts 243°
2026-05-07 16:35 58.39185 15.40265 1054 ft 120 kts 250°
2026-05-07 16:35 58.38896 15.38768 1055 ft 120 kts 248°
2026-05-07 16:35 58.38606 15.37253 1031 ft 122 kts 249°
2026-05-07 16:36 58.38306 15.35738 1021 ft 122 kts 249°
2026-05-07 16:36 58.37975 15.34250 987 ft 122 kts 246°
2026-05-07 16:36 58.37527 15.32886 990 ft 122 kts 229°
2026-05-07 16:36 58.36838 15.31932 998 ft 123 kts 214°
2026-05-07 16:37 58.36121 15.31032 989 ft 124 kts 214°
2026-05-07 16:37 58.35402 15.30123 953 ft 124 kts 214°
2026-05-07 16:37 58.34663 15.29268 921 ft 125 kts 212°
2026-05-07 16:37 58.33944 15.28355 941 ft 123 kts 218°
2026-05-07 16:38 58.33263 15.27385 968 ft 121 kts 219°
2026-05-07 16:38 58.32600 15.26392 997 ft 121 kts 220°
2026-05-07 16:38 58.31950 15.25406 984 ft 119 kts 220°
2026-05-07 16:38 58.31305 15.24434 978 ft 118 kts 220°
2026-05-07 16:39 58.30664 15.23476 927 ft 115 kts 220°
2026-05-07 16:39 58.30441 15.22416 848 ft 80 kts 327°
2026-05-07 16:39 58.30573 15.23046 759 ft 72 kts 138°
2026-05-07 16:39 58.30410 15.23008 762 ft 21 kts 321°
2026-05-07 16:40 58.30521 15.22834 580 ft 15 kts 316°
2026-05-07 16:40 58.30557 15.22784 448 ft 2 kts 311°
2026-05-07 16:40 58.30563 15.22783 424 ft 1 kts 313°
2026-05-07 16:40 58.30563 15.22782 416 ft 0 kts 313°
2026-05-07 16:41 58.30539 15.22830 561 ft 12 kts 317°
2026-05-07 16:42 58.30744 15.22789 681 ft 78 kts 13°
2026-05-07 16:42 58.31049 15.23845 865 ft 96 kts 52°
2026-05-07 16:42 58.31515 15.24789 873 ft 98 kts 27°
2026-05-07 16:42 58.32087 15.25417 810 ft 94 kts 39°
2026-05-07 16:43 58.32441 15.26383 769 ft 81 kts 28°
2026-05-07 16:43 58.32692 15.26103 702 ft 53 kts 244°
2026-05-07 16:43 58.32572 15.25691 610 ft 22 kts 239°
2026-05-07 16:43 58.32531 15.25515 512 ft 9 kts 236°
2026-05-07 16:44 58.32523 15.25462 480 ft 1 kts 238°
2026-05-07 16:44 58.32517 15.25424 474 ft 4 kts 237°
2026-05-07 16:44 58.32513 15.25392 460 ft 2 kts 237°
2026-05-07 16:44 58.32520 15.25388 434 ft 2 kts 238°
2026-05-07 16:45 58.32515 15.25407 464 ft 3 kts 237°
2026-05-07 16:45 58.32507 15.25387 468 ft 1 kts 238°
2026-05-07 16:45 58.32509 15.25381 462 ft 1 kts 238°
2026-05-07 16:45 58.32512 15.25384 456 ft 1 kts 239°
2026-05-07 16:46 58.32512 15.25367 445 ft 1 kts 238°
2026-05-07 16:46 58.32509 15.25360 444 ft 1 kts 239°
2026-05-07 16:46 58.32511 15.25363 432 ft 1 kts 239°
2026-05-07 16:47 58.32500 15.25377 470 ft 8 kts 240°
2026-05-07 16:47 58.32481 15.25354 476 ft 1 kts 240°
2026-05-07 16:47 58.32484 15.25336 479 ft 2 kts 241°
2026-05-07 16:47 58.32476 15.25324 481 ft 4 kts 240°
2026-05-07 16:48 58.32462 15.25305 485 ft 1 kts 240°
2026-05-07 16:48 58.32476 15.25314 478 ft 4 kts 242°
2026-05-07 16:49 58.32500 15.25358 472 ft 3 kts 242°
2026-05-07 16:49 58.32496 15.25370 474 ft 4 kts 242°
2026-05-07 16:50 58.32495 15.25371 473 ft 4 kts 242°
2026-05-07 16:50 58.32495 15.25339 477 ft 3 kts 242°
2026-05-07 16:50 58.32495 15.25333 467 ft 2 kts 243°
2026-05-07 16:50 58.32508 15.25381 482 ft 5 kts 245°
2026-05-07 16:51 58.32514 15.25381 518 ft 3 kts 244°
2026-05-07 16:51 58.32502 15.25335 524 ft 2 kts 240°
2026-05-07 16:51 58.32502 15.25339 489 ft 0 kts 241°
2026-05-07 16:51 58.32500 15.25336 492 ft 0 kts 242°
2026-05-07 16:52 58.32501 15.25336 484 ft 0 kts 241°
2026-05-07 16:52 58.32502 15.25335 472 ft 0 kts 241°
2026-05-07 16:52 58.32502 15.25334 454 ft 0 kts 241°
2026-05-07 16:52 58.32502 15.25335 466 ft 0 kts 242°
2026-05-07 16:53 58.32502 15.25334 472 ft 0 kts 242°
2026-05-07 16:53 58.32503 15.25333 469 ft 0 kts 241°
2026-05-07 16:53 58.32503 15.25332 458 ft 0 kts 241°
2026-05-07 16:54 58.32502 15.25331 514 ft 2 kts 240°
2026-05-07 16:54 58.32446 15.25231 623 ft 21 kts 221°
2026-05-07 16:54 58.32288 15.24992 661 ft 36 kts 221°
2026-05-07 16:55 58.32070 15.24660 667 ft 45 kts 221°
2026-05-07 16:55 58.31805 15.24269 658 ft 51 kts 221°
2026-05-07 16:55 58.31509 15.23850 678 ft 54 kts 219°
2026-05-07 16:55 58.31190 15.23431 656 ft 56 kts 217°
2026-05-07 16:56 58.30871 15.23053 630 ft 49 kts 215°
2026-05-07 16:56 58.30614 15.22886 512 ft 28 kts 205°
2026-05-07 16:56 58.30537 15.22828 427 ft 2 kts 301°
2026-05-07 16:57 58.30535 15.22828 427 ft 1 kts 302°
2026-05-07 16:57 58.30537 15.22809 491 ft 16 kts 301°
2026-05-07 16:57 58.30613 15.22941 484 ft 51 kts 218°
2026-05-07 16:57 58.30551 15.22861 428 ft 1 kts 315°
2026-05-07 16:58 58.30552 15.22867 409 ft 0 kts 314°
2026-05-07 16:58 58.30554 15.22864 414 ft 0 kts 313°
2026-05-07 16:59 58.30530 15.22846 495 ft 10 kts 311°
2026-05-07 16:59 58.30785 15.22870 688 ft 86 kts 20°
2026-05-07 16:59 58.31285 15.23843 781 ft 110 kts 40°
2026-05-07 16:59 58.31805 15.24978 786 ft 116 kts 44°
2026-05-07 17:00 58.32306 15.26043 791 ft 91 kts 43°
2026-05-07 17:00 58.32682 15.26501 689 ft 38 kts 309°
2026-05-07 17:00 58.32749 15.26208 510 ft 26 kts 242°
2026-05-07 17:00 58.32708 15.26040 465 ft 4 kts 240°
2026-05-07 17:01 58.32712 15.26018 454 ft 1 kts 243°
2026-05-07 17:01 58.32717 15.26003 443 ft 1 kts 243°
2026-05-07 17:01 58.32723 15.26014 441 ft 2 kts 243°
2026-05-07 17:01 58.32719 15.26010 444 ft 2 kts 243°
2026-05-07 17:02 58.32715 15.25992 442 ft 1 kts 243°
2026-05-07 17:02 58.32714 15.25984 432 ft 1 kts 236°
2026-05-07 17:02 58.32707 15.25973 446 ft 1 kts 236°
2026-05-07 17:02 58.32707 15.25967 446 ft 1 kts 237°
2026-05-07 17:03 58.32708 15.25965 436 ft 1 kts 237°
2026-05-07 17:03 58.32701 15.25961 501 ft 1 kts 238°
2026-05-07 17:03 58.32709 15.25944 503 ft 2 kts 240°
2026-05-07 17:03 58.32701 15.25934 464 ft 1 kts 239°
2026-05-07 17:04 58.32688 15.25935 460 ft 9 kts 240°
2026-05-07 17:04 58.32706 15.25952 449 ft 1 kts 239°
2026-05-07 17:04 58.32710 15.25944 446 ft 1 kts 238°
2026-05-07 17:04 58.32707 15.25937 436 ft 2 kts 239°
2026-05-07 17:05 58.32662 15.25937 532 ft 3 kts 323°
2026-05-07 17:05 58.32704 15.26023 473 ft 10 kts 298°
2026-05-07 17:05 58.32721 15.26011 446 ft 1 kts 237°
2026-05-07 17:05 58.32718 15.26003 443 ft 1 kts 237°
2026-05-07 17:06 58.32720 15.26003 442 ft 2 kts 238°
2026-05-07 17:06 58.32717 15.25996 448 ft 1 kts 237°
2026-05-07 17:06 58.32712 15.25986 441 ft 0 kts 237°
2026-05-07 17:06 58.32711 15.25987 431 ft 0 kts 237°
2026-05-07 17:07 58.32712 15.25987 431 ft 0 kts 237°
2026-05-07 17:07 58.32713 15.25985 430 ft 0 kts 238°
2026-05-07 17:09 58.32664 15.25909 500 ft 26 kts 235°
2026-05-07 17:09 58.32408 15.25496 626 ft 69 kts 221°
2026-05-07 17:10 58.31910 15.24845 610 ft 102 kts 211°
2026-05-07 17:10 58.31258 15.24124 616 ft 106 kts 210°
2026-05-07 17:10 58.30617 15.23454 723 ft 104 kts 210°
2026-05-07 17:10 58.30473 15.22818 610 ft 37 kts 328°
2026-05-07 17:11 58.30550 15.22820 422 ft 2 kts 321°
2026-05-07 17:11 58.30553 15.22811 408 ft 0 kts 321°
2026-05-07 17:39 58.30587 15.22795 482 ft 34 kts 345°
2026-05-07 17:39 58.30920 15.23366 723 ft 95 kts 52°
2026-05-07 17:40 58.31356 15.24561 784 ft 112 kts 50°
2026-05-07 17:40 58.31745 15.25797 822 ft 104 kts 52°
2026-05-07 17:40 58.32219 15.26569 724 ft 73 kts
2026-05-07 17:40 58.32540 15.26234 649 ft 46 kts 307°
2026-05-07 17:41 58.32619 15.25796 636 ft 28 kts 249°
2026-05-07 17:41 58.32549 15.25539 536 ft 17 kts 237°
2026-05-07 17:41 58.32518 15.25420 474 ft 6 kts 236°
2026-05-07 17:41 58.32497 15.25362 466 ft 4 kts 236°
2026-05-07 17:42 58.32493 15.25337 453 ft 2 kts 237°
2026-05-07 17:42 58.32495 15.25323 450 ft 2 kts 238°
2026-05-07 17:42 58.32496 15.25313 432 ft 2 kts 242°
2026-05-07 17:42 58.32424 15.25196 518 ft 35 kts 237°
2026-05-07 17:43 58.32147 15.24707 654 ft 75 kts 218°
2026-05-07 17:43 58.31673 15.23945 670 ft 100 kts 222°
2026-05-07 17:43 58.31209 15.23134 646 ft 77 kts 224°
2026-05-07 17:43 58.30801 15.22704 571 ft 71 kts 163°
2026-05-07 17:44 58.30512 15.22886 462 ft 15 kts 304°
2026-05-07 17:44 58.30531 15.22849 414 ft 1 kts 317°
2026-05-07 17:44 58.30532 15.22849 413 ft 0 kts 317°